www.pogodaiklimat.ru

Погода и климат >> Архив погоды >> Индонезия >> Цитеко


ПОГОДА в Цитеко

  • Прогноз погоды в Цитеко
  • Монитор погоды в Цитеко

АРХИВ ПОГОДЫ в Цитеко

Время (UTC), дата Ветер
(напр.,м/с)
 
Видим.   Явления Облачность Т
(С)
Тd
(С)
f
(%)
Тe
(С)
Тes
(С)
Комфортность P
(гПа)
Po
(гПа)
Тmin
(С)
Tmax
(С)
R
(мм)
R24
(мм)
S
(см)
15 11.04 СЗ 1 6000 м 9/6 600 м
[Sc As trans Ci sp]
+22.0 +19.0 83 +27 +27 душно 1009.9 904.4
18 11.04 штиль 0 6000 м 8/5 600 м
[Sc Ac As Ci fib]
+20.2 +18.6 91 +23 +23 комфорт 1008.9 903.6
21 11.04 штиль 0 6000 м 6/4 600 м
[Sc Ac As Ci fib]
+19.8 +18.0 89 +22 +22 комфорт 1007.7 902.5
00 12.04 штиль 0 8000 м 9/1 600 м
[Sc As trans Ci fib]
+19.8 +17.7 88 +22 +23 комфорт 1009.3 903.9 +19.6
03 12.04 З 1 10 км 9/1 600 м
[Cu med, cong Ac As Ci fib]
+25.6 +18.5 65 +30 +40 душно 1010.1 904.6
06 12.04 штиль 0 10 км 10/8 600 м
[Cu med, cong As trans Ci fib]
+25.8 +20.3 72 +32 +34 очень
душно
1008.6 903.3
09 12.04 З 3 30 км 10/10 600 м
[Cu med, cong As trans]
+23.5 +21.2 87 +30 +30 очень
душно
1008.6 902.7
12 12.04 Ю 1 н/о в посл. час дождь 10/10 600 м
[Cb cap As trans]
+21.8 +20.6 93 +28 +28 душно 1009.3 903.9 +26.0 3
15 12.04 штиль 0 6000 м в посл. час дождь 10/9 600 м
[Cb cap As trans Ci fib]
+20.8 +19.9 95 +25 +25 комфорт 1011.1 905.5 0.1
18 12.04 штиль 0 6000 м мгла 10/8 600 м
[Sc As trans]
+21.0 +19.4 91 +25 +25 комфорт 1010.0 904.6 0.1
21 12.04 штиль 0 6000 м в посл. час дождь 10/8 600 м
[Sc As trans]
+20.7 +18.8 89 +25 +25 комфорт 1009.2 903.9
00 13.04 штиль 0 8000 м 9/3 600 м
[Sc As trans Ci fib]
+20.6 +19.1 91 +24 +25 комфорт 1010.6 905.0 +19.8 3
03 13.04 СЗ 2 10 км 8/3 600 м
[Cu med, cong As trans Ci fib]
+25.5 +20.8 75 +32 +39 очень
душно
1011.2 905.6
06 13.04 СЗ 3 8000 м гроза без осадков 8/5 600 м
[Cb calv As trans Ci fib]
+26.2 +20.9 73 +33 +39 очень
душно
1009.2 903.9
09 13.04 штиль 0 9000 м гроза без осадков 9/6 600 м
[Cb cap As trans]
+27.1 +21.0 69 +34 +35 очень
душно
1007.8 902.6
12 13.04 штиль 0 6000 м гроза, ливневой дождь 10/9 600 м
[Cb cap As trans]
+23.0 +21.6 92 +31 +31 очень
душно
1010.1 904.7 +27.9 3
15 13.04 штиль 0 5000 м гроза, ливневой дождь 10/9 600 м
[Cb cap As trans]
+20.0 +19.1 95 +23 +23 комфорт 1012.3 906.6 27
18 13.04 штиль 0 6000 м {гроза, дождь} 9/8 600 м
[Sc Ac trans Ci fib]
+19.2 +18.0 93 +21 +21 комфорт 1010.4 904.9 5
21 13.04 штиль 0 6000 м 9/6 600 м
[Sc Ac trans Ci fib]
+19.4 +17.6 89 +21 +21 комфорт 1009.6 904.2
00 14.04 ЮВ 1 8000 м 9/4 600 м
[Sc As trans Ci fib]
+19.8 +18.1 90 +24 +24 комфорт 1010.9 905.4 +19.2 32
03 14.04 З 1 10 км 6/3 600 м
[Cu hum As trans Ci fib]
+24.2 +19.7 76 +29 +40 душно 1011.8 906.2
06 14.04 СЗ 2 10 км 8/5 600 м
[Cu med, cong As trans Ci fib]
+26.4 +21.0 72 +33 +40 очень
душно
1009.2 903.8
09 14.04 З 1 1000 м гроза, ливневой дождь 10/9 600 м
[Cb cap As op]
+23.2 +21.5 90 +31 +31 очень
душно
1007.7 902.5 23
12 14.04 штиль 0 3000 м гроза, ливневой дождь 10/9 600 м
[Cb cap As op]
+21.8 +20.6 93 +28 +28 душно 1009.6 904.2 +27.0 6
15 14.04 штиль 0 3000 м в посл. час гроза {дождь} 10/9 600 м
[Cb cap As op]
+21.0 +20.4 96 +26 +26 душно 1011.0 905.4 0.5
18 14.04 штиль 0 5000 м мгла {гроза} 10/8 600 м
[Cb cap As trans]
+20.7 +20.0 96 +25 +25 комфорт 1010.0 904.5 0.5
21 14.04 штиль 0 6000 м мгла 10/8 600 м
[Sc As trans]
+19.8 +19.2 96 +23 +23 комфорт 1008.7 903.4
00 15.04 штиль 0 8000 м 9/3 600 м
[Sc As trans Ci fib]
+20.3 +19.6 96 +24 +25 комфорт 1010.0 904.5 +19.6 29
03 15.04 штиль 0 7000 м мгла 9/6 600 м
[Cu med, cong As trans Ci fib]
+24.8 +21.1 80 +31 +37 очень
душно
1011.3 905.7
06 15.04 штиль 0 8000 м осадки на расстоянии 9/8 600 м
[Cu med, cong As trans Ci fib]
+25.2 +22.1 83 +33 +36 очень
душно
1008.7 903.4
09 15.04 штиль 0 6000 м гроза без осадков 10/8 600 м
[Cb cap As op]
+21.8 +20.4 92 +28 +28 душно 1008.3 903.0 20
12 15.04 штиль 0 6000 м {гроза, дождь} 10/8 600 м
[Cb cap As op]
+20.6 +19.4 93 +25 +25 комфорт 1009.4 904.0 +25.6 4
15 15.04 штиль 0 5000 м слаб. дождь 10/8 600 м
[Sc As op]
+20.0 +19.1 95 +23 +23 комфорт 1011.1 905.5 3
18 15.04 штиль 0 6000 м {дождь} 9/5 600 м
[Sc As trans Ci fib]
+19.6 +19.0 96 +22 +22 комфорт 1010.1 904.7 0.5
21 15.04 штиль 0 6000 м 8/4 600 м
[Sc Ac As Ci fib]
+19.2 +18.3 95 +21 +21 комфорт 1008.9 903.6
00 16.04 штиль 0 8000 м 8/3 600 м
[Sc As trans Ci fib]
+19.4 +17.7 90 +21 +22 комфорт 1010.5 905.0 +19.0 27
03 16.04 З 1 10 км 6/3 600 м
[Cu med, cong Ac As Ci fib]
+23.6 +20.7 84 +29 +39 душно 1011.7 906.0
06 16.04 СВ 1 6000 м гроза, ливневой дождь 10/9 600 м
[Cb calv As op]
+22.0 +20.3 90 +28 +28 душно 1009.8 904.4 6
09 16.04 ЮВ 1 7000 м гроза, ливневой дождь 10/9 600 м
[Cb cap As op]
+20.8 +19.6 93 +27 +27 душно 1009.0 903.6 16
12 16.04 Ю 1 6000 м гроза, ливневой дождь 10/9 600 м
[Cb cap As op]
+19.6 +19.0 96 +24 +24 комфорт 1009.8 904.3 +25.4 3
15 16.04 ЮВ 1 6000 м {гроза, дождь} 9/8 600 м
[Sc As trans Ci fib]
+19.4 +18.0 92 +23 +23 комфорт 1011.0 905.5 0.3
18 16.04 штиль 0 6000 м {гроза, дождь} 8/5 600 м
[Sc Ac As Ci sp]
+19.2 +18.0 93 +21 +21 комфорт 1010.4 904.9 0.3
21 16.04 штиль 0 6000 м 8/5 600 м
[Sc Ac As Ci sp]
+19.2 +18.3 95 +21 +21 комфорт 1009.3 903.9
00 17.04 штиль 0 8000 м 8/5 600 м
[Sc Ac As Ci fib]
+19.6 +18.4 93 +22 +23 комфорт 1010.4 904.9 +19.0 31
03 17.04 штиль 0 10 км 9/6 600 м
[Cu med, cong As trans Ci fib]
+23.4 +20.8 85 +31 +36 очень
душно
1011.6 906.0
06 17.04 штиль 0 8000 м гроза, ливневой дождь 10/8 600 м
[Cb cap As trans]
+24.2 +22.4 90 +32 +34 очень
душно
1009.6 904.2 6
09 17.04 штиль 0 8000 м осадки на расстоянии {гроза} 10/8 600 м
[Cu med, cong As trans]
+26.0 +21.5 76 +33 +34 очень
душно
1007.6 902.4 0.2
12 17.04 штиль 0 7000 м зарница 10/8 600 м
[Cb cap As trans]
+23.2 +21.5 90 +31 +31 очень
душно
1009.6 904.1 +26.4 0.2
15 17.04 штиль 0 6000 м мгла 10/8 600 м
[Sc As trans]
+22.2 +21.3 95 +29 +29 очень
душно
1011.1 905.5
18 17.04 штиль 0 6000 м 9/8 600 м
[Sc As trans Ci fib]
+20.8 +19.9 95 +25 +25 комфорт 1009.9 904.4
21 17.04 штиль 0 6000 м 9/8 600 м
[Sc Ac trans Ci fib]
+20.1 +18.8 92 +23 +23 комфорт 1009.4 903.8
00 18.04 штиль 0 8000 м 9/3 600 м
[Sc Ac As Ci fib]
+20.6 +19.4 93 +25 +25 комфорт 1010.6 905.1 +19.6 6
03 18.04 штиль 0 7000 м мгла 10/8 600 м
[Cu med, cong As trans Ci fib]
+24.4 +21.0 81 +31 +33 очень
душно
1011.2 905.6
06 18.04 штиль 0 7000 м гроза без осадков 10/9 600 м
[Cb calv As op]
+25.0 +21.9 83 +32 +33 очень
душно
1008.7 903.4

 

Местоположение метеостанции Цитеко (Индонезия): широта -6.70 долгота 106.93 высота над уровнем моря 300 м.

В архиве по умолчанию представлена погода в Цитеко за последнюю неделю. Архивные данные за месяц целиком и за предыдущие месяцы, начиная с января 2011 года, Вы можете получить, выбрав интересующий диапазон дат из раскрывающегося списка и нажав кнопку "Ввод!".


*Определитесь, кто Вы:
робот инопланетянин человек

Внимание! Время в таблицах - всемирное. Для получения местного времени необходимо прибавить поправку, которая равна 7 ч.

Смотрите также архив погоды в соседних городах и на ближайших метеорологических станциях:

Погода в Джакарте (Индонезия) (59 км)
Погода в Чуруге (Индонезия) (61 км)
Погода в Джакарта порту (Индонезия) (67 км)
Погода в Аэропорту Сукарно-Хатта (Индонезия) (72 км)
Погода в Бандунге (Индонезия) (75 км)
Погода в Серанге (Индонезия) (109 км)
Погода в Сиребоне (Индонезия) (147 км)
Погода в Тегале (Индонезия) (246 км)
Погода в Чилачапе (Индонезия) (257 км)
Погода в Танджунгкаранге (Индонезия) (263 км)

Пояснения к столбцам:

Ветер - указаны скорость ветра в м/с - средняя за 10 мин, порывы в срок и между сроками (в фигурных скобках) и направление, откуда дует ветер: С - северный, СВ - северо-восточный, В - восточный, ЮВ - юго-восточный, Ю - южный, ЮЗ - юго-западный, З - западный, СЗ - северо-западный.
Видимость - горизонтальная дальность видимости в метрах или километрах. При видимости от 1 до 10 км при отсутствии осадков обычно наблюдается дымка, при ухудшении видимости до 1 км и менее - туман. В сухую погоду видимость может ухудшаться дымом, пылью или мглою.
Явления - указаны атмосферные явления, наблюдавшиеся в срок или в последний час перед сроком; фигурными скобками обозначены явления, наблюдавшиеся между сроками (за 1-3 часа до срока); квадратными скобками обозначены град или гололедные отложения с указанием их диаметра в мм.
Облачность - указаны через наклонную черту общая и нижняя облачность в баллах и высота нижней границы облаков в метрах; квадратными скобками обозначены формы облаков: Ci - перистые, Cs - перисто-слоистые, Cc - перисто-кучевые, Ac - высококучевые, As - высокослоистые, Sc - слоисто-кучевые, Ns - слоисто-дождевые, Cu - кучевые, Cb - кучево-дождевые. Подробнее классификацию облаков см. в Атласе облаков (PDF).
T - Температура воздуха - температура, измеренная на высоте 2 м над землей.
Td - Температура точки росы - температура, при понижении до которой содержащийся в воздухе водяной пар достигнет насыщения.
f - Относительная влажность воздуха - влажноcть воздуха, измеренная на высоте 2 м над землей.
Te - Эффективная температура - температура, которую ощущает одетый по сезону человек в тени. Характеристика душности погоды. При расчете учитывается влияние влажности воздуха и скорости ветра на теплоощущения человека.
Tes - Эффективная температура на солнце - температура, которую ощущает человек, с поправкой на солнечный нагрев. Характеристика знойности погоды. Зависит от высоты солнца над горизонтом, облачности и скорости ветра. Ночью, в пасмурную погоду, а также при ветре 12 м/с и более поправка равна нулю.
P - Атмосферное давление - приведенное к уровню моря атмосферное давление.
Po - Атмосферное давление - измеренное на уровне метеостанции атмосферное давление.
Tmin - Минимальная температура - минимум температуры воздуха на высоте 2 м над землей.
Tmax - Максимальная температура - максимум температуры воздуха на высоте 2 м над землей.
R - Количество осадков - Количество выпавших осадков за период времени, мм. При наведении курсора мыши на число - период времени, за который выпало указанное количество осадков.
R24 - Количество осадков - Количество выпавших осадков за 24 часа, мм.
S - Снежный покров - Высота снежного покрова, см. При наведении курсора мыши на число - состояние снежного покрова и степень покрытия местности в баллах.